Retour au catalogue

STARLINK-4497

ActifCommunicationsVLEO
NORAD 53411·PAYLOAD·🇺🇸 United States

Lancé Aug 10, 2022 depuis Cape Canaveral Space Force Station

Loading…

Prochains Passages (prochaines 24 heures)

TLE

FraisSource: CelesTrak SupGP

Époque: Sep 15, 2026, 01:37 UTC

1 53411C 22097Z   26258.06784722  .00138560  00000+0  71249-2 0  2588
2 53411  53.1607 342.9559 0001212  95.0829 302.7202 15.15880252    18

Suivez STARLINK-4497 en temps réel avec AllMySat

Download on the App Store